PNEO3

导读

PNEO3即Pléiades-Neo 3,是法国空客防务与航天公司运营的Pleiades Neo超高分辨率光学遥感卫星,于2021年4月29日发射入轨,运行在620公里高度的太阳同步轨道。卫星全色分辨率可达0.3米,具备高重访与大范围成像能力,可提供高精度对地观测影像,服务商业、科研、应急监测等领域,设计寿命超10年,是当前全球商用高分辨率遥感卫星的代表之一。

基本信息
目录编号:
48268
目录名称:
PNEO3
国际标识:
2021-034A
轨道中心:
EARTH
卫星名称:
PNEO3
卫星全名:
--
卫星状态:
在轨 (已飞行1902 天)
发射日期:
2021-04-29 UTC
国别 :
法国 (FR)
星等 :
--
轨道信息
数据来源 国际轨道数据 AOE轨道数据
星历时间 2026-07-14T12:45:59+0800
5小时前
查看轨道信息
2026-07-11T01:00:00+0800
3天前
查看轨道信息
半长轴 7002.205km 7002.178km
偏心率 0.000138 0.0001044
轨道倾角 97.895° 97.893°
近地点辐角 91.467° 110.167°
升交点赤经 269.577° 266.134°
平近点角 268.670° 4.152°
近地点 623.101km 623.309km
远地点 625.035km 624.773km
周期 97.188分钟 97.187分钟
每日圈数 14.816669 14.816754
详细信息
使用方式:
暂无
2D轨道图
3D轨道图
轨道高度分析图
轨道倾角分析图
轨道综合分析图
查看轨道综合分析图